Cosmos 839 Rocket - Orbit

View from above orbital plane
View from above orbital plane
View from above satellite
View from above satellite

Ground track
Ground track

The orbit data is extracted from the following two-line orbital elements,

1 09013U 76067B   13140.81194395 -.00000055  00000-0  51239-5 0  3842
2 09013 065.8677 016.1692 0721323 295.8343 157.9428 12.35290969662805
Epoch (UTC): 20 May 2013 19:29:11
Eccentricity: 0.0721323
inclination: 65.8677°
perigee height: 956 km
apogee height: 2097 km
right ascension of ascending node: 16.1692°
argument of perigee: 295.8343°
revolutions per day: 12.35290969
mean anomaly at epoch: 157.9428°
orbit number at epoch: 66280

The dashed part of the orbit path shows where the satellite is in the earth's shadow,  

Developed and maintained by Chris Peat, Heavens-Above GmbH. Please read the updated FAQ before sending e-mail. Imprint. DLR